Weather History for Marshfield, WI

Change the Weather History Date:

Monday, October 29, 2012

  Actual Average Record
Temperature  
Mean Temperature 36 °F -  
Max Temperature 48 °F 51 °F 76 °F (1950)
Min Temperature 24 °F 31 °F 11 °F (1925)
Degree Days  
Heating Degree Days 29    
Moisture  
Dew Point 22 °F    
Average Humidity 61    
Maximum Humidity 82    
Minimum Humidity 33    
Precipitation  
Precipitation 0.00 in - - ()
Sea Level Pressure  
Sea Level Pressure 30.34 in    
Wind  
Wind Speed 3 mph (NNE)    
Max Wind Speed 8 mph    
Max Gust Speed -    
Visibility 10 miles    
Events      
Averages and records for this station are not official NWS values.
T = Trace of Precipitation, MM = Missing Value Source: NWS Daily Summary

Daily Weather History Graph

Daily Weather History Graph

Search for Another Location

Airport:

Trip Planner

Search our weather history database for the weather conditions in past years. The results will help you decide how hot, cold, wet, or windy it might be!

Date:

Astronomy

Oct. 29, 2012 Rise Set
Actual Time 7:35 AM CDT 5:53 PM CDT
Civil Twilight 7:04 AM CDT 6:23 PM CDT
Nautical Twilight 6:30 AM CDT 6:57 PM CDT
Astronomical Twilight 5:56 AM CDT 7:31 PM CDT
Moon 5:43 PM CDT (10/29) 7:26 AM CDT (10/29)
Length of Visible Light 11h 18m
Length of Day
10h 18m
Full, 100% of the Moon is Illuminated
Oct 29
Full
Oct 29
Full
Nov 6
Last Quarter
Nov 13
New
Nov 20
First Quarter

Hourly Weather History & Observations

Time (CDT) Temp. Windchill Dew Point Humidity Pressure Visibility Wind Dir Wind Speed Gust Speed Precip Events Conditions
12:54 AM 28.0 °F - 21.0 °F 75% 30.37 in 10.0 mi Calm Calm - N/A   Clear
1:54 AM 28.9 °F - 19.9 °F 69% 30.37 in 10.0 mi Calm Calm - N/A   Clear
2:54 AM 26.1 °F - 19.9 °F 78% 30.38 in 10.0 mi Calm Calm - N/A   Clear
3:54 AM 26.1 °F - 21.0 °F 81% 30.38 in 10.0 mi Calm Calm - N/A   Clear
4:54 AM 27.0 °F 21.6 °F 21.0 °F 78% 30.38 in 10.0 mi NNW 4.6 mph - N/A   Clear
5:54 AM 25.0 °F 20.7 °F 19.9 °F 81% 30.39 in 10.0 mi ENE 3.5 mph - N/A   Clear
6:54 AM 24.1 °F 19.7 °F 19.0 °F 81% 30.40 in 10.0 mi NE 3.5 mph - N/A   Clear
7:54 AM 26.1 °F 20.5 °F 19.0 °F 75% 30.41 in 9.0 mi ENE 4.6 mph - N/A   Clear
8:54 AM 28.9 °F 23.9 °F 24.1 °F 82% 30.41 in 10.0 mi ENE 4.6 mph - N/A   Clear
9:54 AM 35.1 °F 31.0 °F 28.0 °F 76% 30.41 in 10.0 mi East 4.6 mph - N/A   Clear
10:54 AM 39.9 °F 37.8 °F 26.1 °F 58% 30.39 in 10.0 mi ENE 3.5 mph - N/A   Clear
11:54 AM 44.1 °F 41.5 °F 21.9 °F 42% 30.38 in 10.0 mi ENE 4.6 mph - N/A   Clear
12:54 PM 45.0 °F - 21.9 °F 40% 30.36 in 10.0 mi Calm Calm - N/A   Clear
1:54 PM 46.9 °F - 19.9 °F 34% 30.34 in 10.0 mi NE 4.6 mph - N/A   Clear
2:54 PM 48.0 °F - 21.0 °F 34% 30.33 in 10.0 mi Variable 3.5 mph - N/A   Clear
3:54 PM 48.9 °F - 21.0 °F 33% 30.32 in 10.0 mi Variable 3.5 mph - N/A   Clear
4:54 PM 46.9 °F - 21.9 °F 37% 30.31 in 10.0 mi NNW 8.1 mph - N/A   Clear
5:54 PM 43.0 °F 41.3 °F 21.9 °F 43% 30.31 in 10.0 mi North 3.5 mph - N/A   Clear
6:54 PM 39.0 °F 36.8 °F 21.9 °F 50% 30.30 in 10.0 mi North 3.5 mph - N/A   Clear
7:54 PM 35.1 °F 31.0 °F 23.0 °F 61% 30.29 in 10.0 mi North 4.6 mph - N/A   Clear
8:54 PM 32.0 °F 27.5 °F 23.0 °F 69% 30.29 in 10.0 mi North 4.6 mph - N/A   Clear
9:54 PM 37.0 °F 32.4 °F 23.0 °F 57% 30.27 in 10.0 mi NNE 5.8 mph - N/A   Clear
10:54 PM 37.0 °F 31.0 °F 23.0 °F 57% 30.25 in 10.0 mi NE 8.1 mph - N/A   Clear
11:54 PM 35.1 °F 29.3 °F 23.0 °F 61% 30.24 in 10.0 mi NNE 6.9 mph - N/A   Clear